Weather History for Madison, WI

Change the Weather History Date:

Friday, January 11, 2013

  Actual Average Record
Temperature  
Mean Temperature 41 °F 18 °F  
Max Temperature 48 °F 26 °F 53 °F (1880)
Min Temperature 34 °F 11 °F -28 °F (1979)
Degree Days  
Heating Degree Days 24 46  
Month to date heating degree days 452 506  
Since 1 July heating degree days 3047 3385  
Cooling Degree Days 0 0  
Month to date cooling degree days 0 0  
Year to date cooling degree days 0 0  
Moisture  
Dew Point 38 °F    
Average Humidity 93    
Maximum Humidity 100    
Minimum Humidity 86    
Precipitation  
Precipitation 0.04 in 0.04 in 0.75 in (1890)
Month to date precipitation 0.28 0.45  
Year to date precipitation 0.28 0.45  
Snow  
Snow 0.00 in 0.50 in 6.50 in (1991)
Month to date snowfall T 4.5  
Since 1 July snowfall 23.5 22.1  
Snow Depth 7.00 in    
Sea Level Pressure  
Sea Level Pressure 29.69 in    
Wind  
Wind Speed 7 mph (South)    
Max Wind Speed 17 mph    
Max Gust Speed 21 mph    
Visibility 2 miles    
Events Fog , Rain    
T = Trace of Precipitation, MM = Missing Value Source: NWS Daily Summary

Daily Weather History Graph

Daily Weather History Graph

Search for Another Location

Airport:

Trip Planner

Search our weather history database for the weather conditions in past years. The results will help you decide how hot, cold, wet, or windy it might be!

Date:

Astronomy

Jan. 11, 2013 Rise Set
Actual Time 7:27 AM CST 4:43 PM CST
Civil Twilight 6:56 AM CST 5:15 PM CST
Nautical Twilight 6:20 AM CST 5:50 PM CST
Astronomical Twilight 5:46 AM CST 6:24 PM CST
Moon 6:59 AM CST (1/11) 5:02 PM CST (1/11)
Length of Visible Light 10h 19m
Length of Day
9h 15m
Waning Crescent, 0% of the Moon is Illuminated
Jan 11
Waning Crescent
Jan 11
New
Jan 18
First Quarter
Jan 26
Full
Feb 3
Last Quarter

Hourly Weather History & Observations

Time (CST) Temp. Windchill Dew Point Humidity Pressure Visibility Wind Dir Wind Speed Gust Speed Precip Events Conditions
12:45 AM 35.6 °F 29.2 °F 33.8 °F 93% 29.81 in 2.5 mi SE 8.1 mph - 0.00 in   Overcast
12:53 AM 36.0 °F 29.6 °F 35.1 °F 97% 29.83 in 2.5 mi SE 8.1 mph - 0.00 in   Overcast
1:42 AM 37.4 °F 30.8 °F 35.6 °F 93% 29.79 in 1.5 mi SSE 9.2 mph - 0.00 in   Overcast
1:53 AM 37.0 °F 29.3 °F 36.0 °F 96% 29.79 in 1.2 mi SSE 11.5 mph - 0.00 in   Light Drizzle
2:21 AM 37.4 °F 34.9 °F 37.4 °F 100% 29.78 in 2.0 mi SSW 3.5 mph - N/A   Light Drizzle
2:29 AM 37.4 °F - 37.4 °F 100% 29.77 in 1.2 mi Calm Calm - 0.00 in   Light Drizzle
2:46 AM 37.4 °F - 37.4 °F 100% 29.76 in 0.5 mi Calm Calm - 0.00 in Fog , Rain Light Rain
2:53 AM 37.0 °F - 37.0 °F 100% 29.77 in 0.5 mi Calm Calm - 0.00 in Fog Fog
3:03 AM 35.6 °F 30.7 °F 35.6 °F 100% 29.73 in 0.2 mi SE 5.8 mph - N/A Fog Fog
3:53 AM 36.0 °F - 36.0 °F 100% 29.72 in 0.2 mi Calm Calm - 0.00 in Fog Fog
4:53 AM 36.0 °F - 35.1 °F 97% 29.70 in 0.2 mi Calm Calm - N/A Fog Fog
5:53 AM 35.1 °F - 35.1 °F 100% 29.70 in 0.2 mi Calm Calm - N/A Fog Fog
6:27 AM 35.6 °F - 33.8 °F 93% 29.68 in 0.2 mi Calm Calm - 0.01 in Fog , Rain Light Rain
6:41 AM 35.6 °F - 35.6 °F 100% 29.68 in 0.8 mi Calm Calm - 0.01 in Rain Light Rain
6:53 AM 34.0 °F - 34.0 °F 100% 29.70 in 0.5 mi Calm Calm - 0.02 in Fog Fog
7:36 AM 35.6 °F - 33.8 °F 93% 29.68 in 0.5 mi Calm Calm - 0.00 in Fog Fog
7:53 AM 34.0 °F 31.0 °F 34.0 °F 100% 29.71 in 0.2 mi East 3.5 mph - 0.00 in Fog Fog
8:05 AM 35.6 °F - 35.6 °F 100% 29.69 in 0.5 mi Calm Calm - N/A Fog Fog
8:17 AM 35.6 °F 31.7 °F 33.8 °F 93% 29.67 in 0.5 mi East 4.6 mph - N/A Fog Fog
8:31 AM 35.6 °F - 35.6 °F 100% 29.67 in 1.0 mi Calm Calm - N/A   Overcast
8:53 AM 36.0 °F 32.1 °F 35.1 °F 97% 29.70 in 1.8 mi South 4.6 mph - N/A   Overcast
9:26 AM 37.4 °F 33.8 °F 37.4 °F 100% 29.68 in 0.8 mi South 4.6 mph - N/A   Overcast
9:53 AM 37.9 °F - 37.0 °F 97% 29.71 in 0.5 mi Calm Calm - N/A Fog Fog
10:53 AM 37.9 °F 31.5 °F 37.0 °F 97% 29.73 in 1.0 mi SSW 9.2 mph - N/A   Overcast
11:12 AM 39.2 °F 33.6 °F 37.4 °F 93% 29.70 in 0.5 mi SSW 8.1 mph - N/A   Overcast
11:53 AM 39.0 °F 33.4 °F 39.0 °F 100% 29.71 in 0.5 mi South 8.1 mph - N/A   Overcast
12:53 PM 39.0 °F 34.8 °F 39.0 °F 100% 29.70 in 0.5 mi South 5.8 mph - N/A   Overcast
1:39 PM 39.2 °F 35.9 °F 37.4 °F 93% 29.66 in 0.2 mi SSE 4.6 mph - N/A Fog Fog
1:53 PM 39.2 °F 35.9 °F 39.2 °F 100% 29.67 in 0.2 mi South 4.6 mph - N/A Fog Fog
2:53 PM 41.0 °F 34.7 °F 39.9 °F 96% 29.66 in 0.2 mi South 10.4 mph - N/A Fog Fog
3:53 PM 41.0 °F 35.8 °F 41.0 °F 100% 29.66 in 0.2 mi South 8.1 mph - N/A Fog Fog
4:53 PM 42.1 °F 36.6 °F 42.1 °F 100% 29.67 in 0.2 mi South 9.2 mph - 0.01 in Fog Fog
5:30 PM 42.8 °F 38.0 °F 42.8 °F 100% 29.66 in 1.0 mi South 8.1 mph - N/A   Overcast
5:53 PM 43.0 °F 37.2 °F 42.1 °F 97% 29.66 in 1.0 mi South 10.4 mph - N/A   Overcast
6:06 PM 42.8 °F 37.0 °F 42.8 °F 100% 29.63 in 3.0 mi South 10.4 mph - N/A   Overcast
6:15 PM 42.8 °F 35.8 °F 42.8 °F 100% 29.63 in 3.0 mi South 13.8 mph - N/A   Overcast
6:53 PM 44.1 °F 38.6 °F 43.0 °F 96% 29.66 in 3.0 mi South 10.4 mph - 0.01 in   Overcast
7:53 PM 45.0 °F 38.9 °F 43.0 °F 93% 29.63 in 3.0 mi South 12.7 mph - N/A   Overcast
8:01 PM 44.6 °F 40.2 °F 42.8 °F 93% 29.61 in 3.0 mi South 8.1 mph - N/A   Overcast
8:13 PM 44.6 °F 40.2 °F 42.8 °F 93% 29.61 in 3.0 mi South 8.1 mph - N/A   Overcast
8:53 PM 44.1 °F 39.5 °F 43.0 °F 96% 29.63 in 3.0 mi South 8.1 mph - N/A   Overcast
9:16 PM 44.6 °F 39.2 °F 42.8 °F 93% 29.60 in 6.0 mi South 10.4 mph - N/A   Scattered Clouds
9:53 PM 45.0 °F 39.3 °F 43.0 °F 93% 29.60 in 10.0 mi South 11.5 mph - N/A   Clear
10:53 PM 46.0 °F 40.6 °F 43.0 °F 89% 29.60 in 10.0 mi South 11.5 mph - N/A   Clear
11:53 PM 46.9 °F - 43.0 °F 86% 29.61 in 10.0 mi South 11.5 mph - N/A   Clear